Stündliche Wetter Juàzeirinho

Heute, 7 März, Sonntag

Zeit Temperatur Niederschläge Wind Luftdruck Luftfeuchtigkeit
00:00 +27°C° 0 mm 3 m/S 739 mmHg 74%
01:00 +26°C° 0 mm 2 m/S 739 mmHg 78%
02:00 +26°C° 0 mm 2 m/S 739 mmHg 81%
03:00 +25°C° 0 mm 1 m/S 739 mmHg 85%
04:00 +25°C° 0 mm 1 m/S 739 mmHg 85%
05:00 +25°C° 0 mm 1 m/S 739 mmHg 85%
06:00 +25°C° 0 mm 1 m/S 740 mmHg 86%
07:00 +27°C° 0 mm 2 m/S 740 mmHg 76%
08:00 +29°C° 0 mm 2 m/S 740 mmHg 66%
09:00 +31°C° 0 mm 3 m/S 741 mmHg 57%
10:00 +34°C° 0 mm 3 m/S 740 mmHg 49%
11:00 +35°C° 0 mm 3 m/S 740 mmHg 42%
12:00 +37°C° 0 mm 3 m/S 740 mmHg 34%
13:00 +38°C° 0 mm 3 m/S 739 mmHg 32%
14:00 +38°C° 0 mm 3 m/S 738 mmHg 29%
15:00 +39°C° 0 mm 3 m/S 737 mmHg 27%
16:00 +37°C° 0 mm 3 m/S 737 mmHg 31%
17:00 +35°C° 0 mm 2 m/S 737 mmHg 35%
18:00 +32°C° 0 mm 2 m/S 737 mmHg 39%
19:00 +31°C° 0 mm 2 m/S 738 mmHg 46%
20:00 +30°C° 0 mm 3 m/S 738 mmHg 53%
21:00 +29°C° 0 mm 4 m/S 739 mmHg 61%
22:00 +28°C° 0 mm 3 m/S 739 mmHg 67%
23:00 +27°C° 0 mm 3 m/S 739 mmHg 74%

Morgen, 8 März, Montag

Zeit Temperatur Niederschläge Wind Luftdruck Luftfeuchtigkeit
00:00 +26°C° 0 mm 2 m/S 739 mmHg 80%
01:00 +26°C° 0 mm 2 m/S 739 mmHg 82%
02:00 +25°C° 0 mm 1 m/S 739 mmHg 83%
03:00 +25°C° 0 mm 1 m/S 739 mmHg 85%
04:00 +25°C° 0 mm 1 m/S 739 mmHg 86%
05:00 +25°C° 0 mm 1 m/S 739 mmHg 86%
06:00 +25°C° 0 mm 1 m/S 739 mmHg 87%
07:00 +27°C° 0 mm 2 m/S 740 mmHg 77%
08:00 +29°C° 0 mm 2 m/S 740 mmHg 68%
09:00 +31°C° 0 mm 3 m/S 740 mmHg 58%
10:00 +33°C° 0 mm 3 m/S 740 mmHg 49%
11:00 +35°C° 0 mm 4 m/S 739 mmHg 41%
12:00 +37°C° 0 mm 4 m/S 739 mmHg 33%
13:00 +38°C° 0 mm 3 m/S 738 mmHg 30%
14:00 +39°C° 0 mm 3 m/S 737 mmHg 26%
15:00 +39°C° 0 mm 3 m/S 737 mmHg 23%
16:00 +37°C° 0 mm 3 m/S 736 mmHg 27%
17:00 +36°C° 0 mm 2 m/S 736 mmHg 30%
18:00 +34°C° 0 mm 2 m/S 736 mmHg 33%
19:00 +31°C° 0 mm 3 m/S 737 mmHg 44%
20:00 +30°C° 0 mm 3 m/S 738 mmHg 55%
21:00 +28°C° 0 mm 3 m/S 738 mmHg 66%
22:00 +27°C° 0 mm 3 m/S 738 mmHg 71%
23:00 +27°C° 0 mm 2 m/S 738 mmHg 76%

übermorgen, 9 März, Dienstag

Zeit Temperatur Niederschläge Wind Luftdruck Luftfeuchtigkeit
00:00 +26°C° 0 mm 1 m/S 738 mmHg 82%
01:00 +25°C° 0 mm 1 m/S 738 mmHg 83%
02:00 +25°C° 0 mm 1 m/S 738 mmHg 84%
03:00 +24°C° 0 mm 1 m/S 738 mmHg 86%
04:00 +24°C° 0 mm 1 m/S 738 mmHg 87%
05:00 +24°C° 0 mm 1 m/S 738 mmHg 88%
06:00 +24°C° 0 mm 1 m/S 738 mmHg 89%
07:00 +26°C° 0 mm 1 m/S 739 mmHg 78%
08:00 +28°C° 0 mm 2 m/S 739 mmHg 67%
09:00 +31°C° 0 mm 3 m/S 740 mmHg 57%
10:00 +33°C° 0 mm 3 m/S 739 mmHg 50%
11:00 +35°C° 0 mm 3 m/S 739 mmHg 43%
12:00 +37°C° 0 mm 3 m/S 738 mmHg 36%
13:00 +37°C° 0 mm 3 m/S 737 mmHg 33%
14:00 +38°C° 0 mm 3 m/S 736 mmHg 29%
15:00 +38°C° 0 mm 3 m/S 735 mmHg 26%
16:00 +37°C° 0 mm 2 m/S 735 mmHg 31%
17:00 +34°C° 0 mm 1 m/S 736 mmHg 35%
18:00 +32°C° 0 mm 1 m/S 736 mmHg 39%
19:00 +31°C° 0 mm 2 m/S 736 mmHg 49%
20:00 +30°C° 0 mm 3 m/S 737 mmHg 59%
21:00 +28°C° 0 mm 4 m/S 737 mmHg 68%
22:00 +28°C° 0 mm 4 m/S 737 mmHg 73%
23:00 +27°C° 0 mm 3 m/S 738 mmHg 77%

10 März, Mittwoch

Zeit Temperatur Niederschläge Wind Luftdruck Luftfeuchtigkeit
00:00 +26°C° 0 mm 3 m/S 738 mmHg 82%
01:00 +26°C° 0 mm 2 m/S 738 mmHg 85%
02:00 +25°C° 0 mm 1 m/S 738 mmHg 88%
03:00 +22°C° 0 mm 0 m/S 738 mmHg 90%
04:00 +22°C° 0 mm 0 m/S 738 mmHg 90%
05:00 +22°C° 0 mm 0 m/S 738 mmHg 90%
06:00 +22°C° 0 mm 0 m/S 738 mmHg 90%
07:00 +26°C° 0 mm 1 m/S 739 mmHg 78%
08:00 +29°C° 0 mm 2 m/S 739 mmHg 66%
09:00 +31°C° 0 mm 3 m/S 739 mmHg 54%
10:00 +34°C° 0 mm 3 m/S 739 mmHg 47%
11:00 +36°C° 0 mm 3 m/S 738 mmHg 39%
12:00 +38°C° 0 mm 3 m/S 738 mmHg 32%
13:00 +38°C° 0 mm 3 m/S 737 mmHg 30%
14:00 +39°C° 0 mm 3 m/S 736 mmHg 28%
15:00 +39°C° 0 mm 3 m/S 735 mmHg 26%
16:00 +37°C° 0 mm 4 m/S 736 mmHg 31%
17:00 +35°C° 0 mm 4 m/S 736 mmHg 37%
18:00 +33°C° 0 mm 4 m/S 736 mmHg 43%
19:00 +32°C° 0 mm 4 m/S 737 mmHg 51%
20:00 +29°C° 0 mm 4 m/S 737 mmHg 58%
21:00 +28°C° 0 mm 3 m/S 738 mmHg 66%
22:00 +27°C° 0 mm 3 m/S 738 mmHg 71%
23:00 +27°C° 0 mm 2 m/S 738 mmHg 76%

11 März, Donnerstag

Zeit Temperatur Niederschläge Wind Luftdruck Luftfeuchtigkeit
00:00 +26°C° 0 mm 2 m/S 738 mmHg 80%
01:00 +25°C° 0 mm 2 m/S 738 mmHg 82%
02:00 +25°C° 0 mm 1 m/S 738 mmHg 84%
03:00 +24°C° 0 mm 1 m/S 738 mmHg 85%
04:00 +24°C° 0 mm 1 m/S 738 mmHg 86%
05:00 +24°C° 0 mm 1 m/S 739 mmHg 86%
06:00 +24°C° 0 mm 1 m/S 739 mmHg 87%
07:00 +26°C° 0 mm 2 m/S 739 mmHg 78%
08:00 +28°C° 0 mm 2 m/S 740 mmHg 69%
09:00 +30°C° 0 mm 3 m/S 740 mmHg 60%
10:00 +33°C° 0 mm 4 m/S 740 mmHg 51%
11:00 +35°C° 0 mm 4 m/S 739 mmHg 42%
12:00 +37°C° 0 mm 4 m/S 739 mmHg 34%
13:00 +38°C° 0 mm 4 m/S 738 mmHg 32%
14:00 +38°C° 0 mm 4 m/S 737 mmHg 31%
15:00 +38°C° 0 mm 3 m/S 736 mmHg 29%
16:00 +36°C° 0 mm 3 m/S 736 mmHg 33%
17:00 +35°C° 0 mm 3 m/S 736 mmHg 36%
18:00 +34°C° 0 mm 3 m/S 737 mmHg 40%
19:00 +31°C° 0.1 mm 3 m/S 737 mmHg 49%
20:00 +30°C° 0.1 mm 3 m/S 738 mmHg 58%
21:00 +28°C° 0.1 mm 3 m/S 738 mmHg 68%
22:00 +28°C° 0 mm 3 m/S 738 mmHg 72%
23:00 +27°C° 0 mm 2 m/S 739 mmHg 76%

12 März, Freitag

Zeit Temperatur Niederschläge Wind Luftdruck Luftfeuchtigkeit
00:00 +26°C° 0 mm 2 m/S 739 mmHg 80%
01:00 +26°C° 0 mm 2 m/S 739 mmHg 82%
02:00 +25°C° 0 mm 2 m/S 738 mmHg 84%
03:00 +25°C° 0 mm 2 m/S 738 mmHg 86%
04:00 +24°C° 0 mm 1 m/S 738 mmHg 87%
05:00 +24°C° 0 mm 1 m/S 739 mmHg 88%
06:00 +22°C° 0 mm 0 m/S 739 mmHg 89%
07:00 +26°C° 0 mm 1 m/S 739 mmHg 76%
08:00 +29°C° 0 mm 2 m/S 740 mmHg 64%
09:00 +31°C° 0 mm 3 m/S 740 mmHg 52%
10:00 +34°C° 0 mm 3 m/S 740 mmHg 45%
11:00 +35°C° 0 mm 3 m/S 739 mmHg 38%
12:00 +37°C° 0 mm 3 m/S 739 mmHg 32%
13:00 +38°C° 0 mm 3 m/S 738 mmHg 29%
14:00 +38°C° 0 mm 3 m/S 737 mmHg 26%
15:00 +39°C° 0 mm 3 m/S 736 mmHg 24%
16:00 +37°C° 0 mm 3 m/S 736 mmHg 26%
17:00 +35°C° 0 mm 2 m/S 736 mmHg 29%
18:00 +32°C° 0 mm 1 m/S 736 mmHg 31%
19:00 +30°C° 0 mm 2 m/S 737 mmHg 45%
20:00 +29°C° 0 mm 3 m/S 738 mmHg 59%
21:00 +28°C° 0 mm 3 m/S 738 mmHg 72%
22:00 +27°C° 0.3 mm 3 m/S 738 mmHg 77%
23:00 +26°C° 0.3 mm 3 m/S 739 mmHg 82%
Mehr zeigen

Wir brauchen deine Erlaubnis

Meteoprog und unser Service Anbieter werden persönliche Daten aufbewahren, so wie Cookies, Geräte Bezeichnung oder ähnliche Technologien von deinem Gerät und Prozess, so wie Persönliche Daten Inhalte und Werbungen, genauso wie social Media und den Verkehr zu analysieren.

  • Aufbewahrung und/oder Zugang zu deiner Geräte Informationen.

    Cookies, Geräte Bezeichnung oder andere Informationen, können aufbewahrt oder Zugang zu deinem Gerät erhalten, für den Grund, der oben angegeben wird.

  • Personalisierte Werbung und Inhalte, Messungen, Einblick in das Publikum und Produkt Entwicklung.

    Werbungen und Inhalte können personalisiert werden, basierend auf ein Profil. Mehr Daten können besser personalisierte Werbungen und Inhalte hinzufügen. Werbung und Inhalte können gezeigt und gemessen werden. Einblicke über das Publikum, welche die Werbung gesehen haben und den Inhalt, können abgeleitet werden. So wie Daten können genutzt werden, um es zu verbessern oder die Benutzer Erfahrung zu verbessern das System und die Software.

Wenn du “Ich stimme zu” klickst, erlaubst du uns, die Cookies zu benutzen die Geräte Bezeichnung, den Web oder ähnliche Technologien zu benutzen. Deine Settings, können in deinem Gerät bei deinem Browser geändert werden.

Für den bestimmten Zweck, berechtigten Interessen beruhen darauf, mehr als auf den Inhalt. Du kannst mehr darüber in unseren Privaten und Cookie Politik lesen.